Météo par heure à Judeida

Ce jour, 20 Juin, Dimanche

Heure Température Précipitation Vent Pression Humidité
00:00 +22°C° 0 mm 1 m/s 751 mmHg 82%
01:00 +22°C° 0 mm 1 m/s 751 mmHg 82%
02:00 +22°C° 0 mm 1 m/s 751 mmHg 84%
03:00 +22°C° 0 mm 1 m/s 751 mmHg 85%
04:00 +22°C° 0 mm 1 m/s 751 mmHg 86%
05:00 +22°C° 0 mm 1 m/s 751 mmHg 86%
06:00 +23°C° 0 mm 1 m/s 751 mmHg 77%
07:00 +25°C° 0 mm 2 m/s 751 mmHg 68%
08:00 +27°C° 0 mm 2 m/s 751 mmHg 59%
09:00 +28°C° 0 mm 3 m/s 751 mmHg 54%
10:00 +29°C° 0 mm 3 m/s 751 mmHg 49%
11:00 +32°C° 0 mm 4 m/s 751 mmHg 45%
12:00 +32°C° 0 mm 5 m/s 751 mmHg 47%
13:00 +30°C° 0 mm 5 m/s 751 mmHg 49%
14:00 +30°C° 0 mm 5 m/s 750 mmHg 51%
15:00 +29°C° 0 mm 5 m/s 750 mmHg 53%
16:00 +28°C° 0 mm 4 m/s 750 mmHg 55%
17:00 +28°C° 0 mm 4 m/s 750 mmHg 57%
18:00 +27°C° 0 mm 3 m/s 750 mmHg 63%
19:00 +25°C° 0 mm 3 m/s 751 mmHg 69%
20:00 +24°C° 0 mm 2 m/s 751 mmHg 75%
21:00 +24°C° 0 mm 2 m/s 751 mmHg 77%
22:00 +24°C° 0 mm 1 m/s 751 mmHg 78%
23:00 +23°C° 0 mm 1 m/s 751 mmHg 80%

Demain, 21 Juin, Lundi

Heure Température Précipitation Vent Pression Humidité
00:00 +23°C° 0 mm 1 m/s 751 mmHg 81%
01:00 +23°C° 0 mm 1 m/s 751 mmHg 82%
02:00 +22°C° 0 mm 1 m/s 751 mmHg 83%
03:00 +22°C° 0 mm 1 m/s 751 mmHg 83%
04:00 +22°C° 0 mm 1 m/s 751 mmHg 84%
05:00 +22°C° 0 mm 1 m/s 751 mmHg 84%
06:00 +24°C° 0 mm 2 m/s 751 mmHg 74%
07:00 +26°C° 0 mm 2 m/s 751 mmHg 64%
08:00 +27°C° 0 mm 2 m/s 752 mmHg 54%
09:00 +29°C° 0 mm 3 m/s 752 mmHg 50%
10:00 +30°C° 0 mm 4 m/s 752 mmHg 47%
11:00 +32°C° 0 mm 4 m/s 752 mmHg 43%
12:00 +32°C° 0 mm 5 m/s 752 mmHg 44%
13:00 +32°C° 0 mm 5 m/s 751 mmHg 46%
14:00 +30°C° 0 mm 5 m/s 751 mmHg 48%
15:00 +30°C° 0 mm 5 m/s 751 mmHg 51%
16:00 +29°C° 0 mm 4 m/s 751 mmHg 54%
17:00 +28°C° 0 mm 4 m/s 751 mmHg 57%
18:00 +27°C° 0 mm 3 m/s 751 mmHg 62%
19:00 +26°C° 0 mm 2 m/s 751 mmHg 68%
20:00 +25°C° 0 mm 1 m/s 752 mmHg 74%
21:00 +25°C° 0 mm 1 m/s 752 mmHg 74%
22:00 +24°C° 0 mm 1 m/s 751 mmHg 74%
23:00 +22°C° 0 mm 0 m/s 751 mmHg 74%

Après-demain, 22 Juin, Mardi

Heure Température Précipitation Vent Pression Humidité
00:00 +22°C° 0 mm 0 m/s 751 mmHg 76%
01:00 +23°C° 0 mm 1 m/s 751 mmHg 77%
02:00 +23°C° 0 mm 1 m/s 751 mmHg 78%
03:00 +23°C° 0 mm 1 m/s 751 mmHg 80%
04:00 +23°C° 0 mm 1 m/s 751 mmHg 81%
05:00 +23°C° 0 mm 1 m/s 751 mmHg 83%
06:00 +24°C° 0 mm 1 m/s 752 mmHg 74%
07:00 +26°C° 0 mm 2 m/s 752 mmHg 66%
08:00 +28°C° 0 mm 2 m/s 752 mmHg 58%
09:00 +29°C° 0 mm 3 m/s 752 mmHg 54%
10:00 +30°C° 0 mm 3 m/s 752 mmHg 49%
11:00 +32°C° 0 mm 4 m/s 752 mmHg 45%
12:00 +32°C° 0 mm 4 m/s 752 mmHg 45%
13:00 +32°C° 0 mm 4 m/s 752 mmHg 45%
14:00 +32°C° 0 mm 4 m/s 751 mmHg 46%
15:00 +30°C° 0 mm 4 m/s 751 mmHg 49%
16:00 +29°C° 0 mm 4 m/s 751 mmHg 52%
17:00 +29°C° 0 mm 4 m/s 751 mmHg 55%
18:00 +27°C° 0 mm 4 m/s 752 mmHg 62%
19:00 +26°C° 0 mm 3 m/s 752 mmHg 69%
20:00 +25°C° 0 mm 2 m/s 752 mmHg 76%
21:00 +24°C° 0 mm 2 m/s 752 mmHg 78%
22:00 +24°C° 0 mm 1 m/s 752 mmHg 79%
23:00 +24°C° 0 mm 1 m/s 752 mmHg 81%

23 Juin, Mercredi

Heure Température Précipitation Vent Pression Humidité
00:00 +23°C° 0 mm 1 m/s 752 mmHg 82%
01:00 +23°C° 0 mm 1 m/s 752 mmHg 83%
02:00 +23°C° 0 mm 1 m/s 752 mmHg 84%
03:00 +23°C° 0 mm 1 m/s 752 mmHg 84%
04:00 +23°C° 0 mm 1 m/s 752 mmHg 84%
05:00 +21°C° 0 mm 0 m/s 752 mmHg 83%
06:00 +25°C° 0 mm 1 m/s 752 mmHg 74%
07:00 +26°C° 0 mm 1 m/s 752 mmHg 65%
08:00 +28°C° 0 mm 2 m/s 752 mmHg 56%
09:00 +29°C° 0 mm 2 m/s 752 mmHg 53%
10:00 +30°C° 0 mm 3 m/s 752 mmHg 49%
11:00 +33°C° 0 mm 3 m/s 752 mmHg 45%
12:00 +33°C° 0 mm 4 m/s 752 mmHg 45%
13:00 +33°C° 0 mm 4 m/s 752 mmHg 46%
14:00 +33°C° 0 mm 5 m/s 751 mmHg 46%
15:00 +32°C° 0 mm 5 m/s 751 mmHg 48%
16:00 +30°C° 0 mm 4 m/s 751 mmHg 49%
17:00 +30°C° 0 mm 4 m/s 751 mmHg 51%
18:00 +28°C° 0 mm 4 m/s 751 mmHg 58%
19:00 +27°C° 0 mm 3 m/s 751 mmHg 66%
20:00 +25°C° 0 mm 3 m/s 751 mmHg 73%
21:00 +25°C° 0 mm 3 m/s 751 mmHg 73%
22:00 +25°C° 0 mm 2 m/s 751 mmHg 74%
23:00 +25°C° 0 mm 2 m/s 751 mmHg 74%

24 Juin, Jeudi

Heure Température Précipitation Vent Pression Humidité
00:00 +24°C° 0 mm 2 m/s 751 mmHg 75%
01:00 +24°C° 0 mm 2 m/s 751 mmHg 76%
02:00 +24°C° 0 mm 1 m/s 751 mmHg 77%
03:00 +24°C° 0 mm 1 m/s 751 mmHg 77%
04:00 +24°C° 0 mm 1 m/s 751 mmHg 77%
05:00 +24°C° 0 mm 1 m/s 751 mmHg 77%
06:00 +25°C° 0 mm 1 m/s 751 mmHg 68%
07:00 +27°C° 0 mm 1 m/s 751 mmHg 59%
08:00 +29°C° 0 mm 1 m/s 751 mmHg 49%
09:00 +31°C° 0 mm 2 m/s 751 mmHg 46%
10:00 +33°C° 0 mm 3 m/s 751 mmHg 42%
11:00 +34°C° 0 mm 3 m/s 751 mmHg 39%
12:00 +34°C° 0 mm 4 m/s 750 mmHg 39%
13:00 +34°C° 0 mm 5 m/s 750 mmHg 39%
14:00 +34°C° 0 mm 5 m/s 750 mmHg 40%
15:00 +34°C° 0 mm 5 m/s 750 mmHg 42%
16:00 +33°C° 0 mm 5 m/s 749 mmHg 45%
17:00 +32°C° 0 mm 5 m/s 749 mmHg 47%
18:00 +30°C° 0 mm 4 m/s 749 mmHg 53%
19:00 +28°C° 0 mm 4 m/s 749 mmHg 59%
20:00 +27°C° 0 mm 3 m/s 749 mmHg 65%
21:00 +26°C° 0 mm 3 m/s 749 mmHg 66%
22:00 +26°C° 0 mm 3 m/s 749 mmHg 67%
23:00 +25°C° 0 mm 3 m/s 749 mmHg 68%

25 Juin, Vendredi

Heure Température Précipitation Vent Pression Humidité
00:00 +25°C° 0 mm 2 m/s 749 mmHg 69%
01:00 +25°C° 0 mm 2 m/s 749 mmHg 69%
02:00 +25°C° 0 mm 2 m/s 749 mmHg 69%
03:00 +25°C° 0 mm 1 m/s 749 mmHg 69%
04:00 +25°C° 0 mm 1 m/s 749 mmHg 70%
05:00 +25°C° 0 mm 1 m/s 749 mmHg 70%
06:00 +27°C° 0 mm 1 m/s 749 mmHg 61%
07:00 +29°C° 0 mm 2 m/s 749 mmHg 53%
08:00 +31°C° 0 mm 2 m/s 749 mmHg 45%
09:00 +34°C° 0 mm 2 m/s 749 mmHg 42%
10:00 +35°C° 0 mm 3 m/s 749 mmHg 39%
11:00 +36°C° 0 mm 4 m/s 749 mmHg 36%
12:00 +36°C° 0 mm 4 m/s 749 mmHg 37%
13:00 +36°C° 0 mm 5 m/s 748 mmHg 38%
14:00 +36°C° 0 mm 5 m/s 748 mmHg 39%
15:00 +35°C° 0 mm 5 m/s 748 mmHg 41%
16:00 +34°C° 0 mm 5 m/s 748 mmHg 42%
17:00 +34°C° 0 mm 5 m/s 748 mmHg 44%
18:00 +32°C° 0 mm 4 m/s 748 mmHg 50%
19:00 +29°C° 0 mm 3 m/s 748 mmHg 56%
20:00 +27°C° 0 mm 3 m/s 748 mmHg 62%
21:00 +27°C° 0 mm 3 m/s 748 mmHg 63%
22:00 +27°C° 0 mm 2 m/s 748 mmHg 63%
23:00 +26°C° 0 mm 2 m/s 748 mmHg 64%
Voir plus

Nous avons besoin de votre consentement

Meteoprog et ses fournisseurs de services peuvent stocker et accéder à des données personnelles telles que des cookies, des identifiants d'appareils ou d'autres technologies similaires sur votre appareil et traiter ces données pour personnaliser le contenu et les publicités, ainsi que pour fournir des fonctionnalités de médias sociaux et analyser le trafic.

  • Stocker et/ou accéder à des informations sur votre appareil

    Des cookies, des identifiants d'appareils ou d'autres informations peuvent être stockés ou accessibles sur votre appareil aux fins indiquées ci-dessus.

  • Annonces et contenus personnalisés, mesure des annonces et des contenus, connaissance de l'audience et développement de produits

    Les annonces et le contenu peuvent être personnalisés en fonction d'un profil. D'autres données peuvent être ajoutées pour mieux personnaliser les annonces et le contenu. Les performances des publicités et du contenu peuvent être mesurées. Il est possible d'obtenir des informations sur le public qui a vu les publicités et le contenu. Ces données peuvent être utilisées pour développer ou améliorer l'expérience de l'utilisateur, les systèmes et les logiciels.

En cliquant sur "J'accepte", vous autorisez l'utilisation de cookies, des identifiants d'appareils, des balises web ou d'autres technologies similaires. Vos paramètres peuvent être modifiés dans le navigateur de votre appareil.

Dans certains cas, des intérêts légitimes peuvent être invoqués plutôt qu'un consentement. Vous pouvez en savoir plus à ce sujet dans notre Politique de confidentialité et de cookies.